User: anonymous   Login
Location: Unspecified
(0.0000°N, 0.0000°E)
Time: 22:42:47
(UTC+00:00)
Language:

FREEDOM - Orbit

View from above orbital plane
View from above orbital plane
View from above satellite
View from above satellite

Ground track
Ground track

The orbit data is extracted from the following two-line orbital elements,

1 41932U 98067KU  18174.83298495  .00047934  00000-0  29377-3 0  9996
2 41932  51.6311 306.5819 0003778 242.9726 117.0889 15.76794887 81811
Epoch (UTC): 23 June 2018 19:59:29
Eccentricity: 0.0003778
inclination: 51.6311°
perigee height: 337 km
apogee height: 342 km
right ascension of ascending node: 306.5819°
argument of perigee: 242.9726°
revolutions per day: 15.76794887
mean anomaly at epoch: 117.0889°
orbit number at epoch: 8181

The dashed part of the orbit path shows where the satellite is in the earth's shadow,  

DLR